World > North America > United States > Virginia

Hourly Triplet, VA Regional Weather

Feedback E-mail the Weather

Quick WX

Triplet, VA Weather Maps

°F °C°F °C
Triplet Weather Map
UTC Time: 7/4/2022, 09:48
Your Time:

Triplet, VA Regional Weather

Expires:202207041000;;658353
ASUS41 KAKQ 040915
RWRAKQ

REGIONAL WEATHER ROUNDUP
NATIONAL WEATHER SERVICE WAKEFIELD VA
500 AM EDT MON JUL 04 2022

Note: "fair" indicates few or no clouds below 12,000 feet with no
significant weather and/or obstructions to visibility. * = Denotes
station may not report precipitation (e.g., rain,snow,etc.),
thunder or fog.


VAZ048-049-060>072-079>083-041000-
CENTRAL AND SOUTH CENTRAL VIRGINIA
  
CITY           SKY/WX    TMP DP  RH WIND       PRES   REMARKS
RICHMOND       CLEAR     68  63  84 N6        30.12R                  
CHESTERFIELD*  FAIR      63  63 100 CALM      30.13                   
PETERSBURG*    CLEAR     62  61  96 CALM      30.13R FOG              
HANOVER        CLEAR     65  63  93 CALM      30.13R                  
TAPPAHANNOCK*  NOT AVBL                                               
QUINTON*       FAIR      63  61  95 CALM      30.11S                  
CHARLOTTSVILLE CLEAR     65  61  87 CALM      30.15R                  
GORDONSVILLE*  FAIR      64  61  93 CALM      30.14R                  
ORANGE*        CLEAR     61  59  94 CALM      30.16R                  
LOUISA*        CLEAR     64  62  93 N5        30.15R                  
BUMPASS*       FAIR      62  62  97 CALM      30.14R                  
FARMVILLE*     CLEAR     62  62 100 CALM      30.13R FOG              
CREWE*         FAIR      61  58  91 CALM      30.13S                  
FORT PICKETT*  FAIR      66  62  88 W9        30.13R                  
CHASE CITY*    CLOUDY    70  64  81 CALM      30.13R                  
CLARKSVILLE*   FAIR      70  66  88 CALM      30.12S                  
SOUTH HILL*    CLOUDY    71  63  75 N5        30.18R                  
LAWRENCEVILLE* PTSUNNY   69  65  85 CALM      30.12S                  
EMPORIA*       CLOUDY    68  68 100 CALM      30.12S                  
$$


SKY/WX - Weather  TMP - Temperature  DP - Dew Point  RH - Humidity
WIND - Wind Direction/Speed PRES - Barometric Pressure VSB - Visibility
WCI - Wind Chill Index E13G22 Wind - East Wind 13 mph/Gusts of 22 mph

Trending Headlines

Triplet Radar Loop



Triplet Quick Facts


National Two Day Weather Forecast


E-mail the Triplet Weather Forecast

Voice your opinion or tell us about page issues...